OBJECT BA, 43806

Orbit data source: Space-Track

You're viewing an Uncataloged Satellite

Recently launched and/or uncataloged satellites may have evolving metadata. Metadata may include but not limited to: Owner, Maufacturer, Bus, Motor, and Mission.

OBJECT BA, 43806 is a satellite in SSO that was launched on Mon, 03 Dec 2018 UTC via an FALCON 9 launch vehicle from the Air Force Western Test Range (AFWTR). Unknown objects in Earth's orbit typically refer to objects detected orbiting the Earth but have not yet been identified or cataloged. These objects could be anything from previously untracked satellites, spent rocket stages, debris from satellite collisions, or even natural meteoroids temporarily captured by Earth's gravity.

Loading next visibility...
Identifier
43806, 2018-099BA
Orbit
SSO
Country
Flag of TBDTBD
Related business
None
Manufacturer
Unknown
Mission
Non-operational Amateur Technology
Bus & Motor
Unknown
Mass
Unknown
Launch date (UTC)
2018-12-03 (7 years ago)
Launch vehicle
FALCON 9
Launch site
Air Force Western Test Range (AFWTR)
Object type
Unknown
Shape & HBR
Box, 0.1 m
Radar Cross Section
0.015 m², Small (<0.1 m²)

Expand to show TLE details & history
Last TLE update: 19 hours ago

TLE from 19 hours ago
0 OBJECT BA
1 43806U 18099BA  25347.87387342  .00008040  00000-0  45284-3 0  9999
2 43806  97.4292  34.9746 0006192 247.2251 112.8327 15.13464080384382
Epoch: 2025-12-13T20:58Z
TLE epoch observation values (Epoch: 2025-12-13T20:58:22.663Z)
Latitude
0.00002°
Longitude
-2.41472°
Altitude
530.388 km
Speed
7.597 km/s
True Right ascension
02h 19m 53s
True Declination
0° 00' 00"
Sunlit
Object was in full shadow at epoch
Visualization orbit readout
Latitude
Unknown
Longitude
Unknown
Altitude
Unknown
Speed
Unknown
Apparent Right ascension
Unknown
Apparent Declination
Unknown
Sunlit
N/A
Visualization observer readout
Local Sidereal Time
14:51:24
Azimuth
Unknown
Elevation
Unknown
Doppler factor
Unknown
Orbital elements
Apogee altitude
526.894 km
Perigee altitude
518.348 km
Semi-major axis
6,900.758 km
Eccentricity
0.00062
Inclination
97.4292°
RAAN
34.9746°
Arg. of periapsis
247.2251°
True anomaly
112.89808°
Mean anomaly
112.8327°
Eccentric anomaly
112.86539°
Mean motion
3.78615 °/min
Orbital period
95.08 mins
BSTAR
0.00045284
Loading maneuver chart data...
Computing Atmospheric mass density...
Loading historical data...
Loading historical data...
Loading historical data...
Loading historical data...
Loading historical data...
Loading historical data...
Loading historical data...

Documentation

Showing up to 5 results
|